AAL842 MKJS-KMIA

Flight info

Callsign AAL842
Flight time 1h 21m
Altitude 34000
Route ALTIB UM779 ZEUSS VIICE2
Aircraft B738/M-VGDW/C

Departure

Time 2026-05-08 16:47
Airport Sangster International Airport (MKJS)

Arrival

Time 2026-05-08 18:08
Airport Miami International Airport (KMIA)
Time Latitude Longitude Altitude Speed Heading
2026-05-08 16:03 18.49951 -77.91715 19 ft 0 kts 156°
2026-05-08 16:40 18.49956 -77.91717 19 ft 2 kts 156°
2026-05-08 16:41 18.49969 -77.91723 19 ft 2 kts 156°
2026-05-08 16:41 18.49983 -77.91727 19 ft 2 kts 179°
2026-05-08 16:41 18.49998 -77.91726 19 ft 2 kts 198°
2026-05-08 16:42 18.50022 -77.91708 18 ft 2 kts 238°
2026-05-08 16:42 18.50025 -77.91700 18 ft 1 kts 250°
2026-05-08 16:42 18.50026 -77.91697 18 ft 0 kts 246°
2026-05-08 16:44 18.50026 -77.91698 18 ft 0 kts 246°
2026-05-08 16:44 18.50003 -77.91753 19 ft 14 kts 245°
2026-05-08 16:44 18.49959 -77.91851 19 ft 14 kts 245°
2026-05-08 16:44 18.49919 -77.91941 19 ft 12 kts 245°
2026-05-08 16:45 18.49883 -77.92023 19 ft 11 kts 247°
2026-05-08 16:45 18.49852 -77.92101 19 ft 11 kts 248°
2026-05-08 16:45 18.49823 -77.92175 19 ft 10 kts 245°
2026-05-08 16:45 18.49790 -77.92247 18 ft 12 kts 245°
2026-05-08 16:46 18.49753 -77.92329 17 ft 12 kts 245°
2026-05-08 16:46 18.49763 -77.92406 16 ft 11 kts 323°
2026-05-08 16:46 18.49826 -77.92446 16 ft 10 kts 329°
2026-05-08 16:46 18.49887 -77.92430 18 ft 11 kts 56°
2026-05-08 16:47 18.50010 -77.92162 19 ft 78 kts 64°
2026-05-08 16:47 18.50337 -77.91408 18 ft 144 kts 65°
2026-05-08 16:47 18.50814 -77.90309 227 ft 179 kts 65°
2026-05-08 16:47 18.51341 -77.89060 897 ft 191 kts 66°
2026-05-08 16:48 18.52075 -77.87785 1184 ft 227 kts 46°
2026-05-08 16:48 18.53599 -77.86928 1243 ft 273 kts 14°
2026-05-08 16:48 18.55558 -77.87042 1186 ft 285 kts 342°
2026-05-08 16:48 18.57175 -77.88185 1260 ft 282 kts 315°
2026-05-08 16:49 18.58427 -77.89764 1721 ft 280 kts 309°
2026-05-08 16:49 18.59613 -77.91379 2205 ft 280 kts 309°
2026-05-08 16:49 18.60789 -77.92992 2800 ft 280 kts 309°
2026-05-08 16:49 18.61974 -77.94620 3390 ft 280 kts 309°
2026-05-08 16:50 18.63161 -77.96250 4068 ft 290 kts 309°
2026-05-08 16:50 18.64357 -77.97894 5250 ft 286 kts 309°
2026-05-08 16:50 18.65561 -77.99550 6315 ft 288 kts 309°
2026-05-08 16:50 18.66785 -78.01230 7332 ft 292 kts 309°
2026-05-08 16:51 18.68026 -78.02928 8321 ft 294 kts 309°
2026-05-08 16:51 18.69267 -78.04620 9239 ft 298 kts 309°
2026-05-08 16:51 18.70530 -78.06335 10135 ft 301 kts 309°
2026-05-08 16:51 18.71833 -78.08116 10931 ft 308 kts 309°
2026-05-08 16:52 18.73125 -78.09907 11683 ft 314 kts 309°
2026-05-08 16:52 18.74475 -78.11803 12202 ft 330 kts 309°
2026-05-08 16:52 18.75863 -78.13764 12652 ft 346 kts 309°
2026-05-08 16:52 18.77333 -78.15850 13079 ft 362 kts 309°
2026-05-08 16:53 18.80454 -78.20284 14045 ft 388 kts 309°
2026-05-08 16:53 18.82081 -78.22595 14744 ft 393 kts 309°
2026-05-08 16:53 18.83716 -78.24927 15466 ft 397 kts 309°
2026-05-08 16:54 18.85346 -78.27262 16185 ft 400 kts 309°
2026-05-08 16:54 18.86987 -78.29620 16844 ft 404 kts 309°
2026-05-08 16:54 18.88663 -78.32032 17520 ft 407 kts 309°
2026-05-08 16:54 18.90340 -78.34450 18201 ft 409 kts 309°
2026-05-08 16:55 18.92010 -78.36861 18853 ft 411 kts 309°
2026-05-08 16:55 18.93686 -78.39286 19478 ft 413 kts 309°
2026-05-08 16:55 18.95381 -78.41740 20111 ft 415 kts 309°
2026-05-08 16:55 18.97088 -78.44216 20689 ft 418 kts 309°
2026-05-08 16:56 18.98787 -78.46684 21269 ft 420 kts 309°
2026-05-08 16:56 19.00516 -78.49196 21841 ft 422 kts 309°
2026-05-08 16:56 19.02231 -78.51691 22388 ft 424 kts 309°
2026-05-08 16:56 19.03972 -78.54218 22907 ft 427 kts 309°
2026-05-08 16:57 19.05717 -78.56741 23406 ft 429 kts 309°
2026-05-08 16:57 19.07553 -78.59251 23860 ft 430 kts 316°
2026-05-08 16:57 19.09863 -78.61186 24296 ft 427 kts 332°
2026-05-08 16:57 19.12546 -78.62569 24757 ft 427 kts 341°
2026-05-08 16:58 19.15375 -78.63433 25204 ft 427 kts 351°
2026-05-08 16:58 19.18353 -78.63792 25673 ft 428 kts 359°
2026-05-08 16:58 19.21338 -78.63796 26258 ft 426 kts
2026-05-08 16:58 19.24297 -78.63692 26830 ft 425 kts
2026-05-08 16:59 19.27221 -78.63584 27283 ft 427 kts
2026-05-08 16:59 19.30225 -78.63506 27450 ft 435 kts
2026-05-08 16:59 19.33310 -78.63473 27819 ft 439 kts
2026-05-08 16:59 19.36354 -78.63483 28359 ft 438 kts
2026-05-08 17:00 19.39382 -78.63524 28885 ft 436 kts 360°
2026-05-08 17:00 19.42402 -78.63587 29417 ft 435 kts 359°
2026-05-08 17:00 19.45437 -78.63666 29948 ft 433 kts 359°
2026-05-08 17:00 19.48429 -78.63754 30455 ft 431 kts 359°
2026-05-08 17:01 19.51439 -78.63850 30975 ft 428 kts 359°
2026-05-08 17:01 19.54388 -78.63947 31515 ft 425 kts 359°
2026-05-08 17:01 19.57375 -78.64046 31994 ft 423 kts 359°
2026-05-08 17:01 19.60325 -78.64145 32376 ft 423 kts 359°
2026-05-08 17:02 19.63294 -78.64246 32754 ft 422 kts 359°
2026-05-08 17:02 19.66217 -78.64346 33231 ft 420 kts 359°
2026-05-08 17:02 19.69155 -78.64447 33644 ft 419 kts 358°
2026-05-08 17:02 19.72061 -78.64546 33980 ft 420 kts 358°
2026-05-08 17:03 19.77949 -78.64748 34008 ft 420 kts 358°
2026-05-08 17:03 19.83785 -78.64948 34008 ft 418 kts 358°
2026-05-08 17:04 19.89617 -78.65147 34008 ft 418 kts 358°
2026-05-08 17:04 19.95430 -78.65346 34008 ft 418 kts 358°
2026-05-08 17:05 20.01265 -78.65546 34008 ft 419 kts 358°
2026-05-08 17:05 20.07101 -78.65745 34007 ft 418 kts 358°
2026-05-08 17:06 20.12914 -78.65945 34008 ft 419 kts 358°
2026-05-08 17:06 20.18746 -78.66145 34006 ft 418 kts 358°
2026-05-08 17:07 20.24570 -78.66345 34004 ft 419 kts 358°
2026-05-08 17:07 20.30445 -78.66547 34004 ft 429 kts 358°
2026-05-08 17:08 20.36534 -78.66756 34003 ft 440 kts 358°
2026-05-08 17:08 20.42611 -78.66966 34001 ft 436 kts 358°
2026-05-08 17:09 20.48698 -78.67175 34004 ft 436 kts 358°
2026-05-08 17:09 20.54801 -78.67384 34002 ft 437 kts 358°
2026-05-08 17:10 20.60850 -78.67594 33999 ft 437 kts 358°
2026-05-08 17:10 20.66957 -78.67806 33998 ft 437 kts 358°
2026-05-08 17:11 20.73014 -78.68015 33995 ft 437 kts 358°
2026-05-08 17:11 20.79118 -78.68227 33991 ft 437 kts 358°
2026-05-08 17:12 20.85184 -78.68436 33986 ft 437 kts 358°
2026-05-08 17:12 20.91296 -78.68648 33980 ft 438 kts 358°
2026-05-08 17:13 20.97392 -78.68859 33982 ft 438 kts 357°
2026-05-08 17:13 21.03471 -78.69070 33984 ft 438 kts 357°
2026-05-08 17:14 21.09563 -78.69282 33978 ft 437 kts 358°
2026-05-08 17:14 21.15680 -78.69495 33983 ft 438 kts 358°
2026-05-08 17:15 21.21771 -78.69706 33981 ft 438 kts 357°
2026-05-08 17:15 21.27855 -78.69918 33985 ft 439 kts 357°
2026-05-08 17:16 21.33994 -78.70132 33985 ft 438 kts 357°
2026-05-08 17:16 21.40096 -78.70345 33985 ft 439 kts 357°
2026-05-08 17:17 21.46187 -78.70557 33984 ft 438 kts 357°
2026-05-08 17:17 21.52292 -78.70770 33986 ft 439 kts 357°
2026-05-08 17:18 21.58387 -78.70983 33987 ft 439 kts 357°
2026-05-08 17:18 21.64538 -78.71198 33988 ft 439 kts 357°
2026-05-08 17:19 21.70621 -78.71412 33991 ft 439 kts 357°
2026-05-08 17:19 21.76752 -78.71626 33991 ft 440 kts 357°
2026-05-08 17:20 21.82896 -78.71841 33994 ft 440 kts 357°
2026-05-08 17:20 21.88989 -78.72056 33993 ft 439 kts 357°
2026-05-08 17:21 21.95116 -78.72271 33988 ft 440 kts 357°
2026-05-08 17:21 22.01244 -78.72487 33986 ft 440 kts 357°
2026-05-08 17:22 22.07395 -78.72703 33983 ft 440 kts 356°
2026-05-08 17:22 22.13527 -78.72919 33984 ft 441 kts 356°
2026-05-08 17:23 22.19662 -78.73135 33985 ft 440 kts 356°
2026-05-08 17:23 22.25796 -78.73350 33986 ft 440 kts 356°
2026-05-08 17:24 22.31932 -78.73567 33995 ft 440 kts 356°
2026-05-08 17:24 22.38049 -78.73783 33996 ft 440 kts 356°
2026-05-08 17:25 22.44202 -78.74000 33998 ft 440 kts 356°
2026-05-08 17:25 22.50311 -78.74217 34002 ft 440 kts 356°
2026-05-08 17:26 22.56480 -78.74435 34009 ft 441 kts 356°
2026-05-08 17:26 22.62606 -78.74654 34005 ft 441 kts 356°
2026-05-08 17:27 22.68753 -78.74872 34011 ft 440 kts 356°
2026-05-08 17:27 22.74888 -78.75090 34011 ft 440 kts 356°
2026-05-08 17:28 22.81025 -78.75309 34020 ft 441 kts 356°
2026-05-08 17:28 22.87127 -78.75526 34025 ft 441 kts 356°
2026-05-08 17:29 22.93294 -78.75745 34027 ft 440 kts 356°
2026-05-08 17:29 22.99406 -78.75963 34029 ft 441 kts 356°
2026-05-08 17:30 23.05556 -78.76183 34029 ft 441 kts 356°
2026-05-08 17:30 23.11696 -78.76402 34029 ft 441 kts 356°
2026-05-08 17:31 23.17849 -78.76622 34029 ft 441 kts 356°
2026-05-08 17:31 23.23958 -78.76841 34029 ft 441 kts 356°
2026-05-08 17:32 23.30096 -78.77060 34029 ft 441 kts 356°
2026-05-08 17:32 23.36243 -78.77281 34029 ft 441 kts 356°
2026-05-08 17:33 23.42382 -78.77501 34029 ft 441 kts 356°
2026-05-08 17:33 23.48513 -78.77721 34029 ft 441 kts 356°
2026-05-08 17:34 23.54672 -78.77943 34029 ft 442 kts 355°
2026-05-08 17:34 23.60821 -78.78164 34029 ft 442 kts 355°
2026-05-08 17:35 23.66978 -78.78384 34029 ft 442 kts 355°
2026-05-08 17:35 23.73094 -78.78606 34029 ft 441 kts 355°
2026-05-08 17:36 23.79259 -78.78828 34029 ft 441 kts 355°
2026-05-08 17:36 23.85383 -78.79050 34029 ft 441 kts 355°
2026-05-08 17:37 23.91555 -78.79274 34029 ft 443 kts 355°
2026-05-08 17:37 23.97689 -78.79629 34027 ft 441 kts 350°
2026-05-08 17:38 24.00696 -78.80341 34026 ft 437 kts 339°
2026-05-08 17:38 24.03464 -78.81640 33908 ft 438 kts 331°
2026-05-08 17:38 24.06142 -78.83237 33623 ft 436 kts 328°
2026-05-08 17:38 24.08709 -78.84931 33343 ft 433 kts 326°
2026-05-08 17:39 24.11259 -78.86681 33062 ft 432 kts 326°
2026-05-08 17:39 24.13806 -78.88448 32789 ft 432 kts 326°
2026-05-08 17:39 24.16370 -78.90218 32528 ft 433 kts 326°
2026-05-08 17:39 24.18896 -78.91946 32271 ft 435 kts 326°
2026-05-08 17:40 24.21481 -78.93697 32009 ft 435 kts 326°
2026-05-08 17:40 24.24053 -78.95426 31750 ft 436 kts 327°
2026-05-08 17:40 24.26669 -78.97176 31488 ft 438 kts 327°
2026-05-08 17:40 24.29284 -78.98919 31230 ft 439 kts 327°
2026-05-08 17:41 24.31905 -79.00662 30974 ft 439 kts 327°
2026-05-08 17:41 24.34501 -79.02387 30721 ft 439 kts 327°
2026-05-08 17:41 24.37117 -79.04125 30467 ft 440 kts 327°
2026-05-08 17:41 24.39749 -79.05873 30213 ft 441 kts 327°
2026-05-08 17:42 24.42357 -79.07606 29962 ft 441 kts 327°
2026-05-08 17:42 24.44990 -79.09358 29708 ft 442 kts 327°
2026-05-08 17:42 24.47646 -79.11125 29453 ft 443 kts 327°
2026-05-08 17:42 24.50280 -79.12879 29190 ft 444 kts 327°
2026-05-08 17:43 24.52908 -79.14629 28757 ft 443 kts 327°
2026-05-08 17:43 24.55521 -79.16370 28279 ft 438 kts 327°
2026-05-08 17:43 24.58123 -79.18104 27768 ft 433 kts 327°
2026-05-08 17:43 24.60678 -79.19808 27260 ft 428 kts 327°
2026-05-08 17:44 24.63187 -79.21483 26758 ft 423 kts 327°
2026-05-08 17:44 24.65702 -79.23162 26249 ft 418 kts 327°
2026-05-08 17:44 24.68175 -79.24815 25742 ft 414 kts 327°
2026-05-08 17:44 24.70625 -79.26453 25233 ft 410 kts 327°
2026-05-08 17:45 24.73037 -79.28068 24727 ft 406 kts 327°
2026-05-08 17:45 24.75439 -79.29675 24221 ft 403 kts 327°
2026-05-08 17:45 24.77815 -79.31267 23714 ft 400 kts 327°
2026-05-08 17:45 24.80182 -79.32854 23224 ft 397 kts 327°
2026-05-08 17:46 24.82532 -79.34430 22743 ft 395 kts 327°
2026-05-08 17:46 24.84869 -79.35997 22252 ft 392 kts 327°
2026-05-08 17:46 24.87193 -79.37556 21757 ft 390 kts 327°
2026-05-08 17:46 24.89500 -79.39105 21267 ft 388 kts 327°
2026-05-08 17:47 24.91788 -79.40642 20776 ft 385 kts 327°
2026-05-08 17:47 24.94096 -79.42193 20280 ft 383 kts 327°
2026-05-08 17:47 24.96351 -79.43708 19797 ft 381 kts 327°
2026-05-08 17:47 24.97841 -79.44710 19476 ft 380 kts 327°
2026-05-08 17:48 25.00839 -79.46727 18829 ft 377 kts 327°
2026-05-08 17:48 25.03075 -79.48232 18346 ft 376 kts 327°
2026-05-08 17:48 25.05308 -79.49737 17862 ft 373 kts 327°
2026-05-08 17:48 25.07508 -79.51220 17382 ft 370 kts 327°
2026-05-08 17:49 25.09697 -79.52696 16906 ft 369 kts 327°
2026-05-08 17:49 25.11898 -79.54181 16429 ft 369 kts 327°
2026-05-08 17:49 25.14072 -79.55647 15955 ft 368 kts 327°
2026-05-08 17:49 25.16260 -79.57122 15484 ft 366 kts 327°
2026-05-08 17:50 25.18402 -79.58568 15193 ft 361 kts 327°
2026-05-08 17:50 25.20550 -79.60017 15037 ft 360 kts 328°
2026-05-08 17:50 25.22693 -79.61465 15029 ft 361 kts 327°
2026-05-08 17:50 25.24842 -79.62917 15028 ft 363 kts 327°
2026-05-08 17:51 25.26993 -79.64371 15028 ft 363 kts 327°
2026-05-08 17:51 25.29167 -79.65841 15030 ft 364 kts 327°
2026-05-08 17:51 25.31322 -79.67299 15030 ft 365 kts 327°
2026-05-08 17:51 25.33486 -79.68763 15029 ft 365 kts 327°
2026-05-08 17:52 25.35664 -79.70238 15030 ft 365 kts 327°
2026-05-08 17:52 25.37760 -79.71780 15028 ft 364 kts 321°
2026-05-08 17:52 25.41223 -79.75787 14859 ft 360 kts 306°
2026-05-08 17:53 25.42678 -79.78015 14414 ft 355 kts 303°
2026-05-08 17:53 25.44060 -79.80257 13961 ft 350 kts 303°
2026-05-08 17:53 25.45416 -79.82476 13509 ft 346 kts 303°
2026-05-08 17:53 25.46766 -79.84654 13060 ft 342 kts 303°
2026-05-08 17:54 25.48127 -79.86819 12612 ft 341 kts 304°
2026-05-08 17:54 25.49497 -79.88974 12163 ft 342 kts 304°
2026-05-08 17:54 25.50852 -79.91093 11718 ft 341 kts 304°
2026-05-08 17:54 25.52230 -79.93243 11264 ft 340 kts 304°
2026-05-08 17:55 25.53582 -79.95354 10982 ft 334 kts 304°
2026-05-08 17:55 25.54902 -79.97413 10970 ft 316 kts 304°
2026-05-08 17:55 25.56135 -79.99339 10883 ft 306 kts 304°
2026-05-08 17:55 25.57370 -80.01273 10678 ft 303 kts 304°
2026-05-08 17:56 25.58584 -80.03177 10481 ft 304 kts 304°
2026-05-08 17:56 25.59795 -80.05076 10234 ft 303 kts 304°
2026-05-08 17:56 25.61004 -80.06971 9980 ft 301 kts 304°
2026-05-08 17:56 25.62219 -80.08875 9973 ft 299 kts 304°
2026-05-08 17:57 25.63416 -80.10751 9976 ft 303 kts 304°
2026-05-08 17:57 25.64626 -80.12651 9977 ft 301 kts 304°
2026-05-08 17:57 25.65747 -80.14629 9838 ft 304 kts 297°
2026-05-08 17:57 25.66707 -80.16734 9458 ft 303 kts 294°
2026-05-08 17:58 25.67582 -80.18832 9083 ft 301 kts 293°
2026-05-08 17:58 25.68443 -80.20926 8707 ft 299 kts 294°
2026-05-08 17:58 25.69309 -80.23013 8308 ft 298 kts 294°
2026-05-08 17:58 25.70176 -80.25073 7888 ft 298 kts 294°
2026-05-08 17:59 25.70988 -80.27212 7459 ft 297 kts 288°
2026-05-08 17:59 25.71362 -80.29421 7038 ft 295 kts 271°
2026-05-08 17:59 25.71286 -80.31684 6617 ft 293 kts 264°
2026-05-08 17:59 25.71081 -80.33920 6194 ft 292 kts 264°
2026-05-08 18:00 25.70890 -80.36143 5773 ft 291 kts 265°
2026-05-08 18:00 25.70630 -80.40611 4923 ft 290 kts 268°
2026-05-08 18:00 25.70526 -80.42847 4500 ft 289 kts 268°
2026-05-08 18:01 25.70418 -80.45045 4090 ft 288 kts 267°
2026-05-08 18:01 25.70257 -80.47218 3962 ft 275 kts 265°
2026-05-08 18:01 25.70071 -80.49281 3966 ft 261 kts 265°
2026-05-08 18:01 25.69892 -80.51251 3967 ft 260 kts 265°
2026-05-08 18:02 25.69728 -80.53280 3824 ft 262 kts 269°
2026-05-08 18:02 25.69828 -80.54597 3677 ft 259 kts 286°
2026-05-08 18:02 25.71051 -80.56780 3410 ft 248 kts 323°
2026-05-08 18:02 25.72563 -80.57573 3215 ft 234 kts 348°
2026-05-08 18:03 25.74110 -80.57458 3104 ft 218 kts 20°
2026-05-08 18:03 25.75268 -80.56474 3099 ft 203 kts 53°
2026-05-08 18:03 25.75961 -80.55151 3101 ft 196 kts 60°
2026-05-08 18:03 25.76596 -80.53826 3101 ft 195 kts 60°
2026-05-08 18:04 25.77240 -80.52500 3101 ft 195 kts 60°
2026-05-08 18:04 25.77662 -80.51060 3097 ft 198 kts 84°
2026-05-08 18:04 25.77645 -80.49534 3095 ft 199 kts 90°
2026-05-08 18:04 25.77767 -80.48001 2904 ft 202 kts 81°
2026-05-08 18:05 25.77919 -80.46459 2620 ft 204 kts 82°
2026-05-08 18:05 25.78041 -80.44886 2352 ft 201 kts 86°
2026-05-08 18:05 25.78119 -80.43375 2057 ft 193 kts 85°
2026-05-08 18:05 25.78191 -80.41937 1764 ft 183 kts 86°
2026-05-08 18:06 25.78251 -80.40601 1590 ft 164 kts 86°
2026-05-08 18:06 25.78285 -80.39349 1303 ft 164 kts 87°
2026-05-08 18:06 25.78348 -80.38093 1049 ft 160 kts 85°
2026-05-08 18:06 25.78421 -80.36880 842 ft 158 kts 86°
2026-05-08 18:07 25.78462 -80.35658 680 ft 156 kts 87°
2026-05-08 18:07 25.78507 -80.34480 542 ft 152 kts 87°
2026-05-08 18:07 25.78541 -80.33308 381 ft 153 kts 87°
2026-05-08 18:07 25.78593 -80.32137 200 ft 151 kts 87°
2026-05-08 18:08 25.78632 -80.30976 39 ft 146 kts 87°
2026-05-08 18:08 25.78679 -80.29919 11 ft 122 kts 88°
2026-05-08 18:08 25.78708 -80.29169 14 ft 73 kts 87°
2026-05-08 18:08 25.78769 -80.28740 14 ft 30 kts 55°
2026-05-08 18:09 25.78886 -80.28617 14 ft 19 kts 37°
2026-05-08 18:09 25.79003 -80.28524 14 ft 19 kts 35°
2026-05-08 18:09 25.79120 -80.28440 11 ft 20 kts 33°
2026-05-08 18:09 25.79236 -80.28446 11 ft 18 kts 301°
2026-05-08 18:10 25.79298 -80.28567 11 ft 17 kts 299°
2026-05-08 18:10 25.79355 -80.28680 11 ft 16 kts 299°
2026-05-08 18:10 25.79413 -80.28781 12 ft 14 kts 321°
2026-05-08 18:10 25.79519 -80.28800 11 ft 15 kts
2026-05-08 18:11 25.79577 -80.28717 11 ft 14 kts 76°
2026-05-08 18:11 25.79601 -80.28610 11 ft 13 kts 76°
2026-05-08 18:11 25.79622 -80.28518 11 ft 8 kts 62°
2026-05-08 18:11 25.79670 -80.28495 11 ft 7 kts
2026-05-08 18:12 25.79701 -80.28492 11 ft 3 kts
2026-05-08 18:12 25.79715 -80.28491 11 ft 0 kts